{"data":{"norad_id":81439,"epoch":"2026-09-18T04:05:26.397024Z","epoch_age_seconds":219383,"freshness":"STALE","line1":"1 81439U          26261.17044441  .00000005  00000+0  15915-3 0  9995","line2":"2 81439  67.1614 321.5137 0594823  30.3521 333.0567 12.62731304297171","mean_motion":12.62731304,"eccentricity":0.0594823,"inclination_deg":67.1614,"raan_deg":321.5137,"arg_perigee_deg":30.3521,"mean_anomaly_deg":333.0567,"bstar":0.00015915,"rev_number":29717,"period_min":114.03851282046,"perigee_km":948.33425040094,"apogee_km":1875.0480397485,"semimajor_km":7789.8281450747,"source":"CELESTRAK","updated_at":"2026-09-20T09:00:32.388993Z"}}